Voltar ao catálogo

STARLINK-36449

AtivoComunicaçõesVLEO
NORAD 67308·PAYLOAD·🇺🇸 United States

Lançado Jan 4, 2026 de Cape Canaveral Space Force Station

Loading…

Próximas Passagens (próximas 24 horas)

TLE

AtualizadoSource: CelesTrak SupGP

Época: Sep 14, 2026, 22:41 UTC

1 67308C 26002D   26257.94562500 -.00019687  00000+0 -71314-3 0  2575
2 67308  43.0038 336.4497 0001498 274.8638  68.2885 15.27584137    11

Acompanhe STARLINK-36449 em tempo real com AllMySat

Download on the App Store